COSMOS 2251 DEB, 33916

Orbit data source: Space-Track

COSMOS 2251 DEB, 33916 is space debris in LEO originally from a launch on Wed, 16 Jun 1993 UTC launched from the Plesetsk Missile And Space Complex (PKMTR). The debris from Iridium 33, an American commercial communications satellite, has been tracked extensively since its accidental collision with the defunct Russian satellite Cosmos 2251 in 2009. This event, occurring at high speed in low Earth orbit (LEO), generated thousands of pieces of space debris, significantly increasing the risk of further collisions. The Iridium 33 debris cloud has impacted space traffic management and orbital debris mitigation strategies, making it a subject of ongoing study in space situational awareness.

Loading next visibility...
Identifier
33916, 1993-036DV
Orbit
LEO
Country
Flag of CISCIS
Related business
Manufacturer
Unknown
Mission
Spacecraft
Bus & Motor
Unknown
Mass
Unknown
Launch date (UTC)
1993-06-16 (33 years ago)
Launch vehicle
Unknown
Launch site
Plesetsk Missile And Space Complex (PKMTR)
Object type
Payload
Rocket body
Debris
Shape & HBR
Unknown shape, 0.2 m
Radar Cross Section
Medium (>0.1 m² and <1 m²)

Expand to show TLE details & history
Last TLE update: 6 hours ago

TLE from 6 hours ago
0 COSMOS 2251 DEB
1 33916U 93036DV  25354.13005020  .00000291  00000-0  25229-3 0  9998
2 33916  74.0522  28.4455 0325011 199.0158 231.6370 13.68621439839923
Epoch: 2025-12-20T03:07Z
TLE epoch observation values (Epoch: 2025-12-20T03:07:16.337Z)
Latitude
63.0034°
Longitude
-73.41063°
Altitude
1,168.585 km
Speed
7.199 km/s
True Right ascension
04h 09m 28s
True Declination
62° 52' 18"
Sunlit
Object was in full shadow at epoch
Visualization orbit readout
Latitude
Unknown
Longitude
Unknown
Altitude
Unknown
Speed
Unknown
Apparent Right ascension
Unknown
Apparent Declination
Unknown
Sunlit
N/A
Visualization observer readout
Local Sidereal Time
07:46:10
Azimuth
Unknown
Elevation
Unknown
Doppler factor
Unknown
Orbital elements
Apogee altitude
1,242.088 km
Perigee altitude
762.349 km
Semi-major axis
7,380.356 km
Eccentricity
0.0325
Inclination
74.0522°
RAAN
28.4455°
Arg. of periapsis
199.0158°
True anomaly
228.78981°
Mean anomaly
231.637°
Eccentric anomaly
230.20619°
Mean motion
3.42316 °/min
Orbital period
105.17 mins
BSTAR
0.00025229
Loading maneuver chart data...
Computing Atmospheric mass density...

Documentation

Showing up to 5 results
|